User: anonymous   Login
Location: Bodest
(46.3000°N, 22.5667°E)
Time: 15:12:46
(UTC+00:00)
Language:

Cosmos 1934 Rocket - Orbit

View from above orbital plane
View from above orbital plane
View from above satellite
View from above satellite

Ground track
Ground track

The orbit data is extracted from the following two-line orbital elements,

1 18986U 88023B   22024.09515554  .00000123  00000-0  10500-3 0  9992
2 18986  82.9521 232.2598 0041734 174.4327 185.7304 13.78658533702375
Epoch (UTC): 24 January 2022 02:17:01
Eccentricity: 0.0041734
inclination: 82.9521°
perigee height: 938 km
apogee height: 999 km
right ascension of ascending node: 232.2598°
argument of perigee: 174.4327°
revolutions per day: 13.78658533
mean anomaly at epoch: 185.7304°
orbit number at epoch: 70237

The dashed part of the orbit path shows where the satellite is in the earth's shadow,  

DLR